Date String (YYYY-MM-DD hh:mm:ss) UTC,Instrument flags,Ambient pressure (hPa),Sample flow (lpm),Bypass flow (lpm),Sample temperature (°C),Ambient temperature (°C),ASC tube jacket temperature (°C),LED temperature (°C),Box temperature (°C),Sample RH (%),Span deviation,Mass concentration (μg/m³),Mass concentration (μg/m³),Mass concentration (μg/m³)
DateTimeUTC,F1_M11,P_M11,Q1_M11,Q2_M11,T1_M11,T2_M11,T3_M11,T4_M11,T5_M11,U1_M11,ZSPAN_M11,X0_M11,X2_M11,X1_M11
2022-05-01 19:00:00,,0822.1,4.98,0.00,28.4,27.5,00.0,37.2,30.2,10.4,-000.6,0019.84,0007.60,0006.08
2022-05-01 19:01:00,,0822.1,5.01,0.00,28.4,27.5,00.0,37.2,30.2,10.6,-000.6,0020.64,0007.58,0006.11
2022-05-01 19:02:00,,0822.1,5.00,0.00,28.4,27.5,00.0,37.2,30.2,10.7,-000.1,0020.40,0007.64,0006.15
2022-05-01 19:03:00,,0822.1,4.98,0.00,28.4,27.5,00.0,37.2,30.2,10.5,0000.2,0019.22,0007.71,0006.19
2022-05-01 19:04:00,,0822.1,5.01,0.00,28.4,27.6,00.0,37.2,30.2,10.4,0000.2,0019.72,0007.74,0006.22
2022-05-01 19:05:00,,0822.0,4.99,0.00,28.4,27.6,00.0,37.2,30.2,10.6,0000.2,0019.95,0007.82,0006.26
2022-05-01 19:06:00,,0822.0,5.02,0.00,28.4,27.6,00.0,37.2,30.2,10.7,-000.1,0019.87,0007.86,0006.27
2022-05-01 19:07:00,,0822.0,4.99,0.00,28.4,27.6,00.0,37.2,30.2,10.7,0000.3,0020.61,0007.93,0006.31
2022-05-01 19:08:00,,0822.0,4.99,0.00,28.5,27.6,00.0,37.3,30.3,10.6,0000.0,0020.90,0007.94,0006.33
2022-05-01 19:09:00,,0821.9,5.01,0.00,28.5,27.6,00.0,37.3,30.3,10.6,0000.8,0021.28,0007.98,0006.38
2022-05-01 19:10:00,,0821.8,5.01,0.00,28.5,27.6,00.0,37.3,30.3,10.6,0001.5,0021.05,0008.05,0006.46
2022-05-01 19:11:00,,0821.7,5.00,0.00,28.5,27.6,00.0,37.3,30.3,10.6,0000.3,0020.02,0008.15,0006.51
2022-05-01 19:12:00,,0821.7,5.01,0.00,28.5,27.6,00.0,37.3,30.3,10.6,0000.8,0019.23,0008.22,0006.52
2022-05-01 19:13:00,,0821.9,4.99,0.00,28.5,27.7,00.0,37.3,30.3,10.6,0002.4,0019.30,0008.21,0006.52
2022-05-01 19:14:00,,0821.7,5.01,0.00,28.5,27.7,00.0,37.3,30.3,10.7,0003.2,0019.67,0008.22,0006.53
2022-05-01 19:15:00,,0821.7,5.00,0.00,28.5,27.7,00.0,37.4,30.4,10.8,0002.4,0018.91,0008.23,0006.53
2022-05-01 19:16:00,,0821.7,4.99,0.00,28.6,27.7,00.0,37.4,30.4,10.8,0003.7,0018.71,0008.18,0006.51
2022-05-01 19:17:00,,0821.8,5.02,0.00,28.6,27.7,00.0,37.4,30.4,10.7,0003.7,0018.52,0008.11,0006.50
2022-05-01 19:18:00,,0821.9,5.00,0.00,28.6,27.7,00.0,37.4,30.4,10.7,0003.8,0018.08,0008.07,0006.47
2022-05-01 19:19:00,,0821.8,4.99,0.00,28.6,27.7,00.0,37.4,30.4,10.5,0003.4,0018.13,0008.07,0006.44
2022-05-01 19:20:00,,0821.8,5.01,0.00,28.6,27.7,00.0,37.4,30.4,10.5,0002.6,0018.62,0008.02,0006.39
2022-05-01 19:21:00,,0821.8,5.01,0.00,28.6,27.7,00.0,37.4,30.4,10.6,0002.7,0018.74,0008.00,0006.34
2022-05-01 19:22:00,,0821.9,5.00,0.00,28.6,27.7,00.0,37.5,30.4,10.5,0002.6,0018.49,0007.88,0006.28
2022-05-01 19:23:00,,0821.8,5.01,0.00,28.6,27.7,00.0,37.5,30.4,10.5,0002.3,0018.46,0007.78,0006.24
2022-05-01 19:24:00,,0821.9,5.01,0.00,28.6,27.7,00.0,37.5,30.4,10.4,0002.3,0018.54,0007.71,0006.19
2022-05-01 19:25:00,,0821.9,5.00,0.00,28.6,27.7,00.0,37.5,30.4,10.4,0002.3,0018.80,0007.65,0006.17
2022-05-01 19:26:00,,0821.8,5.01,0.00,28.6,27.7,00.0,37.5,30.4,10.4,0002.4,0018.16,0007.63,0006.19
2022-05-01 19:27:00,,0821.7,4.99,0.00,28.6,27.8,00.0,37.5,30.4,10.4,0002.3,0018.51,0007.65,0006.22
2022-05-01 19:28:00,,0821.7,5.01,0.00,28.6,27.8,00.0,37.5,30.4,10.4,0001.8,0018.84,0007.68,0006.22
2022-05-01 19:29:00,,0821.7,4.98,0.00,28.7,27.8,00.0,37.5,30.4,10.4,0001.4,0018.53,0007.60,0006.21
2022-05-01 19:30:00,,0821.7,5.00,0.00,28.7,27.8,00.0,37.5,30.5,10.4,0000.9,0017.84,0007.57,0006.23
2022-05-01 19:31:00,,0821.7,5.00,0.00,28.7,27.9,00.0,37.5,30.5,10.5,0001.0,0017.13,0007.58,0006.23
2022-05-01 19:32:00,,0821.7,5.00,0.00,28.7,27.9,00.0,37.5,30.5,10.5,0001.1,0017.41,0007.50,0006.21
2022-05-01 19:33:00,,0821.7,4.99,0.00,28.7,27.9,00.0,37.6,30.5,10.5,0000.8,0018.39,0007.52,0006.20
2022-05-01 19:34:00,,0821.7,5.01,0.00,28.7,27.9,00.0,37.6,30.5,10.6,0000.9,0017.87,0007.49,0006.19
2022-05-01 19:35:00,,0821.7,4.99,0.00,28.7,27.9,00.0,37.6,30.5,10.6,0001.1,0017.49,0007.49,0006.18
2022-05-01 19:36:00,,0821.6,5.00,0.00,28.8,28.0,00.0,37.6,30.5,10.5,0000.5,0017.13,0007.45,0006.16
2022-05-01 19:37:00,,0821.6,5.01,0.00,28.8,28.0,00.0,37.6,30.6,10.5,-000.0,0017.34,0007.45,0006.13
2022-05-01 19:38:00,,0821.6,5.00,0.00,28.8,28.0,00.0,37.6,30.6,10.7,-000.2,0017.40,0007.46,0006.12
2022-05-01 19:39:00,,0821.5,4.99,0.00,28.8,28.0,00.0,37.6,30.6,10.6,0000.0,0016.65,0007.42,0006.13
2022-05-01 19:40:00,,0821.6,5.00,0.00,28.8,28.0,00.0,37.6,30.6,10.6,0000.0,0016.44,0007.46,0006.15
2022-05-01 19:41:00,,0821.5,5.00,0.00,28.8,28.0,00.0,37.7,30.6,10.6,0000.0,0016.71,0007.50,0006.17
2022-05-01 19:42:00,,0821.5,5.00,0.00,28.8,28.0,00.0,37.7,30.6,10.5,0000.0,0017.13,0007.52,0006.18
2022-05-01 19:43:00,,0821.5,4.99,0.00,28.9,28.0,00.0,37.7,30.6,10.5,0000.0,0017.09,0007.59,0006.20
2022-05-01 19:44:00,,0821.5,5.00,0.00,28.9,28.1,00.0,37.7,30.7,10.6,0000.0,0016.88,0007.63,0006.20
2022-05-01 19:45:00,,0821.4,4.99,0.00,28.9,28.1,00.0,37.7,30.7,10.5,0000.0,0016.72,0007.68,0006.22
2022-05-01 19:46:00,,0821.4,5.01,0.00,28.9,28.1,00.0,37.7,30.7,10.6,0000.0,0017.09,0007.71,0006.23
2022-05-01 19:47:00,,0821.5,4.99,0.00,28.9,28.1,00.0,37.7,30.7,10.6,0000.0,0017.64,0007.75,0006.23
2022-05-01 19:48:00,,0821.5,5.01,0.00,28.9,28.1,00.0,37.7,30.7,10.5,0000.0,0017.55,0007.76,0006.25
2022-05-01 19:49:00,,0821.6,5.00,0.00,28.9,28.1,00.0,37.8,30.7,10.6,0000.0,0017.63,0007.68,0006.23
2022-05-01 19:50:00,,0821.5,5.02,0.00,29.0,28.1,00.0,37.8,30.8,10.5,0000.1,0018.36,0007.70,0006.22
2022-05-01 19:51:00,,0821.5,4.98,0.00,29.0,28.1,00.0,37.8,30.8,10.5,0002.0,0018.67,0007.72,0006.21
2022-05-01 19:52:00,,0821.5,5.02,0.00,29.0,28.1,00.0,37.8,30.8,10.7,0000.1,0018.28,0007.68,0006.19
2022-05-01 19:53:00,,0821.5,5.00,0.00,29.0,28.1,00.0,37.8,30.8,10.6,0000.0,0017.64,0007.62,0006.18
2022-05-01 19:54:00,,0821.5,4.98,0.00,29.0,28.2,00.0,37.8,30.8,10.5,0001.0,0017.01,0007.61,0006.19
2022-05-01 19:55:00,,0821.4,5.01,0.00,29.0,28.2,00.0,37.8,30.8,10.7,0001.4,0016.46,0007.54,0006.20
2022-05-01 19:56:00,,0821.4,4.98,0.00,29.1,28.2,00.0,37.9,30.8,10.5,0000.8,0016.94,0007.51,0006.22
2022-05-01 19:57:00,,0821.4,5.01,0.00,29.1,28.2,00.0,37.9,30.8,10.6,0000.5,0017.12,0007.50,0006.24
2022-05-01 19:58:00,,0821.4,5.00,0.00,29.1,28.2,00.0,37.9,30.9,10.6,0000.5,0016.61,0007.50,0006.24
2022-05-01 19:59:00,,0821.4,5.00,0.00,29.1,28.2,00.0,37.9,30.9,10.5,0000.5,0015.73,0007.48,0006.25
